Location: D�derode
(51.8092°N, 10.1065°E)
Time: 21:26:18
(UTC+00:00)

Cosmos 1943 Rocket - Pass Details

Date: 01 December 2020
Orbit: 811 x 845 km, 71.0° (Epoch: 24 January)

Event Time Altitude Azimuth Distance (km) Brightness Sun altitude
Rises 17:51:46 0° 321° (NW) 3,361 5.8 -23.6°
Reaches altitude 10° 17:54:37 10° 308° (NW) 2,429 5.2 -24.0°
Maximum altitude 17:58:55 23° 257° (WSW) 1,676 4.5 -24.7°
Drops below altitude 10° 18:03:13 10° 206° (SSW) 2,433 4.9 -25.4°
Sets 18:06:06 0° 193° (SSW) 3,367 5.5 -25.8°
